{"data":{"norad_id":66306,"epoch":"2026-09-18T04:57:38.235456Z","epoch_age_seconds":329794,"freshness":"STALE","line1":"1 66306U 25248P   26261.20669254  .00012528  00000+0  43182-3 0  9991","line2":"2 66306  45.4029 328.6928 0011303 248.0726 111.8963 15.30046858 48834","mean_motion":15.30046858,"eccentricity":0.0011303,"inclination_deg":45.4029,"raan_deg":328.6928,"arg_perigee_deg":248.0726,"mean_anomaly_deg":111.8963,"bstar":0.00043182,"rev_number":4883,"period_min":94.114764686507,"perigee_km":467.92550124377,"apogee_km":483.41922268743,"semimajor_km":6853.8093619656,"source":"CELESTRAK","updated_at":"2026-09-21T09:00:15.904462Z"}}